Stations météo

Publicité
Lille, France (7015): Température de l'air & dewpoint: 12.12.2017 17:00:00 - 18.12.2017 17:00:00 (CET)Lille, France (7015): Température de l'air 5cm: 12.12.2017 17:00:00 - 18.12.2017 17:00:00 (CET)Lille, France (7015): Température de l'air -20cm & Température de l'air -100cm: 12.12.2017 17:00:00 - 18.12.2017 17:00:00 (CET)Lille, France (7015): Vitesse du vent & gusts: 12.12.2017 17:00:00 - 18.12.2017 17:00:00 (CET)Lille, France (7015): Direction du vent: 12.12.2017 17:00:00 - 18.12.2017 17:00:00 (CET)Lille, France (7015): reduced air pressure: 12.12.2017 17:00:00 - 18.12.2017 17:00:00 (CET)Lille, France (7015): visibility: 12.12.2017 17:00:00 - 18.12.2017 17:00:00 (CET)Lille, France (7015): Ensoleillement: 12.12.2017 17:00:00 - 18.12.2017 17:00:00 (CET)Lille, France (7015): Quantités de précipitations: 12.12.2017 17:00:00 - 18.12.2017 17:00:00 (CET)
Date & Time tt [°C] td [°C] tt 5cm [°C] tt -20cm [°C] tt -100cm [°C] ff [km/h] ff [knt] fx [km/h] fx [knt] dd ppp [hPa] vv [km] sd [min] rr [mm]
18.12.2017 17:00:00 6,7 3,7 5,1 5,1 7,5 13 7 29 16 NNW 1029,3 16 0 0,0
18.12.2017 16:00:00 7,7 3,7 7,1 5,0 7,5 18 10 36 20 NNW 1028,2 17 17 0,0
18.12.2017 15:00:00 8,1 3,7 8,0 4,9 7,5 23 12 38 21 NNW 1027,3 18 25 0,0
18.12.2017 14:00:00 8,3 3,7 8,2 4,7 7,5 18 10 36 19 NNW 1026,9 10 20 0,0
18.12.2017 13:00:00 8,2 4,4 9,1 4,6 7,5 20 11 34 19 N 1026,5 15 58 0,0
18.12.2017 12:00:00 7,6 4,7 8,5 4,4 7,5 18 10 32 18 NNW 1026,3 15 60 0,0
18.12.2017 11:00:00 6,9 4,7 6,4 4,3 7,5 17 9 29 16 NNW 1026,0 14 50 0,0
18.12.2017 10:00:00 6,0 4,5 4,7 4,3 7,5 18 10 34 18 NW 1025,0 12 11 0,0
18.12.2017 09:00:00 5,6 3,9 4,3 4,4 7,6 19 11 33 18 NW 1023,9 13 0 0,0
18.12.2017 08:00:00 5,5 3,3 4,1 4,4 7,6 22 12 32 18 NW 1022,9 10 0 0,0
18.12.2017 07:00:00 5,8 3,3 3,8 4,5 7,6 19 11 31 17 NW 1021,9 13 0 0,0
18.12.2017 06:00:00 6,2 3,7 4,7 4,5 7,6 18 10 32 17 NW 1021,2 13 0 0,0
18.12.2017 05:00:00 7,3 4,6 6,0 4,4 7,6 22 12 35 19 NNW 1020,4 10 0 0,0
18.12.2017 04:00:00 8,1 6,2 7,2 4,2 7,6 23 12 40 22 NW 1019,9 15 0 0,0
18.12.2017 03:00:00 8,2 6,7 7,2 4,0 7,6 26 14 40 22 NW 1019,0 18 0 0,0
18.12.2017 02:00:00 7,5 7,2 6,1 3,8 7,6 16 9 23 12 W 1018,7 10 0 0,0
18.12.2017 01:00:00 6,2 5,9 5,0 3,7 7,6 14 7 33 18 WSW 1018,9 2,0 0 1,0
18.12.2017 00:00:00 5,2 4,8 4,2 3,6 7,6 26 14 40 22 SSW 1019,3 4,2 0 0,8
17.12.2017 23:00:00 4,5 3,9 3,8 3,5 7,6 25 14 41 22 S 1020,3 2,5 0 1,2
17.12.2017 22:00:00 4,0 3,4 3,5 3,4 7,6 29 16 41 22 S 1021,4 3,5 0 0,8
17.12.2017 21:00:00 3,7 3,1 3,2 3,3 7,6 23 12 35 19 S 1022,6 2,8 0 0,6
17.12.2017 20:00:00 3,6 2,6 3,0 3,3 7,6 24 13 35 19 S 1023,2 3,8 0 0,4
17.12.2017 19:00:00 3,6 1,8 2,9 3,2 7,6 22 12 34 18 S 1024,1 10 0 0,0
17.12.2017 18:00:00 3,6 1,1 3,2 3,1 7,6 14 8 27 14 S 1024,6 18 0 0,0
17.12.2017 17:00:00 3,6 0,8 3,1 3,1 7,6 15 8 21 11 SSW 1025,2 10 0 0,0
17.12.2017 16:00:00 3,7 0,7 3,4 3,0 7,6 11 6 21 12 SSW 1025,5 31 0 0,0
17.12.2017 15:00:00 4,3 0,4 4,3 2,8 7,6 15 8 21 11 WSW 1025,7 10 1 0,0
17.12.2017 14:00:00 4,4 0,7 5,0 2,8 7,6 9 5 20 11 SW 1025,4 24 28 0,0
17.12.2017 13:00:00 4,6 1,4 4,6 2,8 7,7 15 8 21 11 WSW 1025,5 10 60 0,0
17.12.2017 12:00:00 3,2 1,2 3,4 2,8 7,6 16 8 21 11 W 1025,8 9 60 0,0
17.12.2017 11:00:00 1,5 0,8 -0,1 2,8 7,6 10 5 14 8 WSW 1026,1 8 60 0,0
17.12.2017 10:00:00 -0,3 -0,7 -2,6 2,8 7,6 11 6 14 7 WSW 1025,8 5 17 0,0
17.12.2017 09:00:00 -1,1 -1,7 -4,7 2,9 7,7 11 6 16 9 WSW 1025,0 4,2 0 0,0
17.12.2017 08:00:00 -1,3 -2,0 -4,5 2,9 7,7 9 5 17 9 W 1024,5 2,8 0 0,0
17.12.2017 07:00:00 -0,6 -1,2 -2,5 3,0 7,6 15 8 18 10 W 1023,8 7 0 0,0
17.12.2017 06:00:00 -1,0 -1,6 -3,0 3,1 7,7 14 8 19 10 W 1023,5 4,5 0 0,0
17.12.2017 05:00:00 -0,6 -1,2 -3,5 3,1 7,6 18 10 19 10 W 1023,1 5 0 0,0
17.12.2017 04:00:00 -0,8 -1,5 -4,0 3,2 7,7 13 7 16 8 W 1022,7 5 0 0,0
17.12.2017 03:00:00 -0,3 -1,0 -2,4 3,3 7,7 14 7 16 9 W 1022,6 8 0 0,0
17.12.2017 02:00:00 0,0 -0,6 -4,3 3,4 7,7 11 6 13 7 W 1022,1 8 0 0,0
17.12.2017 01:00:00 -0,3 -1,1 -3,4 3,5 7,7 11 6 12 7 W 1021,7 7 0 0,0
17.12.2017 00:00:00 0,3 -1,1 -1,5 3,6 7,7 10 6 15 8 W 1021,5 12 0 0,0
16.12.2017 23:00:00 0,7 -0,6 -0,3 3,7 7,7 13 7 15 8 WSW 1020,7 14 0 0,0
16.12.2017 22:00:00 0,1 -1,0 -1,7 3,8 7,7 7 4 14 8 WSW 1020,6 14 0 0,0
16.12.2017 21:00:00 0,6 -1,2 -3,5 3,9 7,7 9 5 12 7 SW 1020,3 15 0 0,0
16.12.2017 20:00:00 -0,5 -2,2 -2,6 4,1 7,7 10 5 14 8 WSW 1020,0 15 0 0,0
16.12.2017 19:00:00 1,0 -0,8 -1,6 4,3 7,7 10 5 14 7 WSW 1019,4 25 0 0,0
16.12.2017 18:00:00 1,5 -0,6 0,1 4,5 7,7 10 5 23 13 WSW 1019,1 38 0 0,0
16.12.2017 17:00:00 2,9 0,3 2,0 4,6 7,7 17 9 34 18 W 1018,6 42 0 0,0
16.12.2017 16:00:00 4,3 1,3 4,2 4,6 7,7 22 12 39 21 W 1017,8 31 3 0,0
16.12.2017 15:00:00 5,0 1,8 4,3 4,5 7,7 23 12 36 19 W 1017,0 20 20 0,0
16.12.2017 14:00:00 4,5 1,9 4,6 4,4 7,7 23 12 34 18 W 1016,7 32 5 0,0
16.12.2017 13:00:00 4,6 2,6 4,3 4,3 7,7 22 12 34 18 W 1016,2 10 1 0,0
16.12.2017 12:00:00 4,5 2,7 4,0 4,1 7,7 22 12 31 17 W 1015,9 19 5 0,0
16.12.2017 11:00:00 4,4 2,7 3,6 4,0 7,7 21 11 32 17 WNW 1015,5 19 15 0,0
16.12.2017 10:00:00 4,0 2,7 3,1 4,0 7,7 18 10 26 14 W 1014,3 18 3 0,0
16.12.2017 09:00:00 3,7 2,2 2,4 4,0 7,7 16 8 24 13 WNW 1013,3 20 0 0,0
16.12.2017 08:00:00 2,9 1,7 2,4 3,9 7,7 8 4 22 12 WSW 1012,4 59 0 0,0
16.12.2017 07:00:00 3,0 1,5 2,3 3,9 7,7 19 11 32 17 NNW 1011,6 3,5 0 1,8
16.12.2017 06:00:00 3,6 2,1 2,4 3,9 7,7 13 7 37 20 WNW 1010,5 10 0 0,0
16.12.2017 05:00:00 3,4 2,1 2,2 3,9 7,7 16 9 23 12 WNW 1009,5 20 0 0,0
16.12.2017 04:00:00 3,2 2,3 1,6 3,9 7,7 13 7 19 10 WNW 1008,9 19 0 0,0
16.12.2017 03:00:00 3,2 2,2 2,1 4,0 7,7 13 7 27 15 WNW 1007,7 20 0 0,2
16.12.2017 02:00:00 3,4 3,1 1,3 4,0 7,7 18 10 26 14 WNW 1006,6 5 0 0,8
16.12.2017 01:00:00 1,9 1,3 -0,1 4,0 7,8 11 6 16 8 W 1005,9 4,8 0 0,2
16.12.2017 00:00:00 1,8 1,1 -0,3 4,2 7,8 13 7 18 10 WNW 1005,3 2,2 0 0,0
15.12.2017 23:00:00 2,1 0,8 0,3 4,3 7,7 10 6 23 12 WNW 1004,3 4,7 0 0,0
15.12.2017 22:00:00 4,0 2,7 3,0 4,3 7,8 13 7 26 14 NNW 1003,1 12 0 0,0
15.12.2017 21:00:00 4,3 3,0 2,9 4,3 7,8 16 9 28 15 NNW 1002,0 16 0 0,0
15.12.2017 20:00:00 3,8 2,8 2,4 4,3 7,8 16 9 24 13 NW 1000,3 18 0 0,0
15.12.2017 19:00:00 3,6 2,3 2,9 4,3 7,8 16 9 27 15 W 999,1 14 0 0,0
15.12.2017 18:00:00 4,1 2,8 2,8 4,4 7,8 18 10 30 16 W 998,0 14 0 0,2
15.12.2017 17:00:00 3,8 2,5 2,9 4,4 7,8 11 6 18 10 W 997,2 15 0 0,0
15.12.2017 16:00:00 4,6 3,3 4,2 4,3 7,8 14 8 24 13 W 996,5 12 0 0,2
15.12.2017 15:00:00 4,8 3,3 5,0 4,1 7,8 11 6 18 10 W 995,8 20 0 0,0
15.12.2017 14:00:00 4,5 2,7 4,1 3,9 7,8 9 5 16 9 WSW 995,4 51 5 0,0
15.12.2017 13:00:00 3,5 1,9 4,0 3,7 7,8 11 6 24 13 SW 995,0 42 0 0,0
15.12.2017 12:00:00 3,9 2,3 3,9 3,6 7,8 16 9 29 16 SSW 994,6 40 0 0,0
15.12.2017 11:00:00 3,9 2,3 3,1 3,5 7,8 17 9 31 17 SSW 994,4 43 33 0,0
15.12.2017 10:00:00 2,6 1,4 0,1 3,5 7,8 15 8 21 12 SSW 993,8 28 1 0,0
15.12.2017 09:00:00 1,1 0,7 -0,7 3,6 7,8 11 6 15 8 S 993,3 8 0 0,0
15.12.2017 08:00:00 1,0 0,3 -0,4 3,7 7,8 8 4 22 12 S 993,0 9 0 0,0
15.12.2017 07:00:00 2,3 1,3 1,4 3,7 7,8 13 7 20 11 SSW 992,9 19 0 0,0
15.12.2017 06:00:00 2,7 1,5 2,5 3,7 7,8 13 7 23 12 SSW 992,5 60 0 0,0
15.12.2017 05:00:00 3,0 2,1 2,5 3,6 7,8 14 8 21 11 SSW 992,2 32 0 0,4
15.12.2017 04:00:00 3,0 2,1 2,1 3,5 7,8 13 7 23 13 S 992,0 10 0 0,4
15.12.2017 03:00:00 2,6 1,7 1,4 3,5 7,8 16 9 26 14 SSW 991,8 8 0 0,6
15.12.2017 02:00:00 2,1 1,1 1,0 3,5 7,8 18 10 29 15 S 991,6 20 0 0,0
15.12.2017 01:00:00 1,6 0,6 0,4 3,6 7,8 16 8 25 13 S 991,4 52 0 0,0
15.12.2017 00:00:00 1,3 0,4 0,5 3,7 7,8 16 8 26 14 S 991,1 39 0 0,0
14.12.2017 23:00:00 1,6 0,7 0,5 3,8 7,9 18 10 26 14 SSW 991,2 20 0 0,0
14.12.2017 22:00:00 1,0 0,3 0,3 3,9 7,9 14 8 30 16 SSW 991,1 26 0 0,0
14.12.2017 21:00:00 1,6 0,7 1,2 3,9 7,9 19 10 30 16 SSW 991,2 52 0 0,4
14.12.2017 20:00:00 2,1 1,4 0,9 4,0 7,9 13 7 29 16 SSW 991,4 12 0 2,4
14.12.2017 19:00:00 1,0 0,4 0,1 4,1 7,9 13 7 25 14 S 991,6 37 0 1,8
14.12.2017 18:00:00 1,6 0,7 0,7 4,2 8,0 16 9 36 19 SW 992,3 4,9 0 6,2
14.12.2017 17:00:00 2,9 1,4 2,0 4,5 8,0 19 10 41 22 W 992,3 4,2 0 5,9
14.12.2017 16:00:00 4,3 2,6 3,6 4,5 8,0 25 13 44 24 SSW 992,7 12 0 0,6
14.12.2017 15:00:00 4,5 3,0 3,5 4,5 8,0 20 11 48 26 SW 993,2 60 0 1,8
14.12.2017 14:00:00 4,1 2,8 3,1 4,5 8,0 16 9 48 26 SW 994,1 10 0 2,2
14.12.2017 13:00:00 4,2 2,7 3,1 4,5 8,0 31 17 46 25 S 994,9 20 0 0,6
14.12.2017 12:00:00 4,1 2,1 3,7 4,5 8,0 34 18 51 28 SSW 995,9 51 0 0,0
14.12.2017 11:00:00 4,0 2,3 2,7 4,4 8,0 26 14 42 23 SW 996,2 10 0 0,6
14.12.2017 10:00:00 3,5 2,0 2,4 4,4 8,0 29 16 55 30 SSW 995,9 3,8 0 1,4
14.12.2017 09:00:00 3,9 2,3 3,1 4,4 8,0 29 16 58 31 SW 995,9 49 0 0,6
14.12.2017 08:00:00 5,5 2,0 4,0 4,4 8,1 24 13 40 21 WSW 995,9 9 0 0,4
14.12.2017 07:00:00 5,3 1,0 4,1 4,4 8,0 18 10 45 24 WSW 995,9 20 0 0,0
14.12.2017 06:00:00 5,0 0,7 3,0 4,5 8,0 22 12 40 22 WSW 996,1 48 0 0,0
14.12.2017 05:00:00 4,3 -0,1 3,2 4,7 8,0 28 15 50 27 WSW 995,8 10 0 0,0
14.12.2017 04:00:00 4,4 -0,6 3,5 4,8 8,1 36 19 67 36 WSW 995,4 60 0 0,0
14.12.2017 03:00:00 4,9 -0,1 3,5 4,9 8,1 44 24 72 39 W 993,8 10 0 0,2
14.12.2017 02:00:00 5,2 1,1 3,6 4,9 8,1 40 21 66 36 W 992,3 60 0 0,4
14.12.2017 01:00:00 4,3 2,6 3,6 5,0 8,1 34 19 66 36 SSW 991,4 34 0 3,0
14.12.2017 00:00:00 4,4 1,9 3,2 5,1 8,1 18 10 25 14 S 991,2 10 0 0,0
13.12.2017 23:00:00 4,8 1,1 2,8 5,3 8,1 13 7 41 22 SW 992,5 59 0 0,0
13.12.2017 22:00:00 5,6 1,3 4,2 5,5 8,1 35 19 58 31 W 992,9 60 0 0,0
13.12.2017 21:00:00 7,0 3,2 5,6 5,5 8,1 39 21 55 30 W 992,0 57 0 0,0
13.12.2017 20:00:00 7,7 5,5 6,8 5,4 8,1 35 19 104 56 W 991,3 17 0 2,6
13.12.2017 19:00:00 8,1 7,2 7,3 5,3 8,2 35 19 61 33 SSW 991,3 4,2 0 2,7
13.12.2017 18:00:00 7,9 6,7 7,3 5,1 8,1 35 19 62 33 S 992,9 8 0 0,4
13.12.2017 17:00:00 7,8 6,7 7,0 5,0 8,2 31 17 45 25 S 994,7 10 0 0,8
13.12.2017 16:00:00 7,5 6,6 7,0 4,9 8,2 26 14 40 22 S 996,9 10 0 0,2
13.12.2017 15:00:00 7,2 6,3 6,8 4,7 8,2 22 12 34 18 S 998,2 10 0 0,8
13.12.2017 14:00:00 7,2 6,1 6,5 4,6 8,2 16 9 37 20 SSW 999,7 6 0 2,6
13.12.2017 13:00:00 7,4 5,9 6,7 4,3 8,2 23 12 36 19 SSW 1000,7 20 0 0,0
13.12.2017 12:00:00 6,9 5,5 6,1 4,1 8,2 28 15 42 23 SSW 1001,6 40 0 0,0
13.12.2017 11:00:00 6,4 5,0 5,1 4,0 8,2 25 14 54 29 SSW 1002,1 50 0 0,0
13.12.2017 10:00:00 5,4 4,7 4,5 3,9 8,2 37 20 57 31 S 1002,0 17 0 0,0
13.12.2017 09:00:00 4,8 3,9 4,3 3,7 8,2 40 21 64 35 S 1002,8 9 0 0,2
13.12.2017 08:00:00 4,7 3,7 4,0 3,6 8,2 39 21 56 30 S 1003,8 12 0 0,4
13.12.2017 07:00:00 4,4 3,4 3,5 3,5 8,3 34 19 58 31 S 1004,7 6 0 1,2
13.12.2017 06:00:00 4,1 2,4 3,3 3,4 8,2 32 17 56 31 S 1006,1 14 0 0,2
13.12.2017 05:00:00 3,9 2,1 3,2 3,3 8,3 29 16 46 25 S 1007,8 15 0 0,0
13.12.2017 04:00:00 3,7 1,7 2,6 3,2 8,3 29 16 45 25 S 1009,4 10 0 0,0
13.12.2017 03:00:00 2,9 1,3 1,9 3,2 8,3 25 14 42 23 S 1010,2 18 0 0,0
13.12.2017 02:00:00 2,3 0,8 1,7 3,2 8,3 24 13 45 24 S 1010,9 14 0 0,0
13.12.2017 01:00:00 2,4 0,9 1,6 3,1 8,3 24 13 35 19 S 1011,8 14 0 0,0
13.12.2017 00:00:00 1,9 0,6 0,9 3,2 8,3 19 10 32 17 S 1012,5 14 0 0,0
12.12.2017 23:00:00 1,4 0,1 0,1 3,3 8,4 17 9 26 14 S 1013,2 16 0 0,0
12.12.2017 22:00:00 0,8 -0,5 0,0 3,3 8,3 16 9 23 12 S 1013,8 16 0 0,0
12.12.2017 21:00:00 1,1 -0,4 -0,2 3,4 8,4 15 8 22 12 S 1013,7 17 0 0,0
12.12.2017 20:00:00 1,0 -0,5 -1,0 3,5 8,4 13 7 19 10 S 1013,5 10 0 0,0
12.12.2017 19:00:00 0,3 -1,0 -1,0 3,7 8,4 10 6 13 7 S 1013,4 15 0 0,0
12.12.2017 18:00:00 1,8 -0,1 0,2 3,7 8,4 8 4 12 7 S 1012,9 17 0 0,0
12.12.2017 17:00:00 3,4 0,4 2,0 3,8 8,4 11 6 16 8 SW 1012,7 20 14 0,0

tt = Température de l'air
td = dewpoint
tt 5cm = Température de l'air 5cm
tt -20cm = Température de l'air -20cm
tt -100cm = Température de l'air -100cm
ff = Vitesse du vent
fx = gusts
dd = Direction du vent
ppp = reduced air pressure
vv = visibility
sd = Ensoleillement
rr = Quantités de précipitations

stations d'obs. à proximité